Location: ??????
(56.0120°N, 39.1740°E)
Time: 02:00:18
(UTC+00:00)

Cosmos 2369 - Pass Details

Date: 14 April 2026
Orbit: 837 x 855 km, 71.0° (Epoch: 20 May)

Event Time Altitude Azimuth Distance (km) Brightness Sun altitude
Rises 22:37:22 0° 324° (NW) 3,414 7.3 -22.5°
Reaches altitude 10° 22:39:52 10° 329° (NNW) 2,478 6.6 -22.4°
Maximum altitude 22:45:29 58° 48° (NE) 992 4.3 -22.1°
Drops below altitude 10° 22:51:06 10° 127° (SE) 2,478 6.0 -21.8°
Sets 22:53:36 0° 132° (SE) 3,413 6.7 -21.7°
